Home   Weather   Broome   Past weeks

Flag for Australia Past Weather in Broome, Western Australia, Australia — Yesterday and Last 2 Weeks

Now
89 °F

Hot.


Feels Like: 95 °F
Forecast: 83 / 94 °F
Wind: 13 mph from West

Location: Broome Airport

Current Time: Dec 6, 2016 at 4:22:09 pm

Latest Report: Dec 6, 2016 at 3:00 pm


Visibility: N/A

Pressure: 29.75 "Hg

Humidity: 57%

Dew Point: 71 °F

Location of BroomeLocation

Past Weather in Broome — Graph

°F

Broome Temperature Yesterday

Maximum temperature yesterday: 86 °F (at 9:00 am)
Minimum temperature yesterday: 78 °F (at 12:00 am)
Average temperature yesterday: 81 °F

High & Low Weather Summary for the Past Weeks

 TemperatureHumidityPressure
High101 °F (Nov 25, 11:00 am)93% (Dec 5, 8:00 pm)29.84 "Hg (Dec 5, 8:00 pm)
Low77 °F (Nov 24, 5:00 am)23% (Nov 25, 11:00 am)29.66 "Hg (Nov 21, 3:00 pm)
Average87 °F66%29.76 "Hg
* Reported Nov 21 3:00 pm — Dec 6 3:00 pm, Broome, Weather by CustomWeather, © 2016

Note: Actual official high and low records may vary slightly from our data, if they occured in-between our weather recording intervals... More about our weather records

Advertising

Broome Weather History for the Previous 24 Hours

Scroll right to see more
 ConditionsComfort  
Time TempWeatherWind HumidityBarometerVisibility
3:00 pm
Tue, Dec 6
89 °FHot.13 mph57%29.75 "HgN/A
2:00 pm91 °FHot.12 mph52%29.76 "HgN/A
12:00 pm90 °FHot.8 mph54%29.80 "HgN/A
11:00 am90 °FHot.9 mph57%29.82 "HgN/A
9:00 am89 °FPartly sunny.6 mph54%29.84 "HgN/A
8:00 am86 °FWarm.9 mph62%29.84 "HgN/A
6:00 am78 °FPassing clouds.6 mph92%29.82 "HgN/A
5:00 am78 °FWarm.6 mph91%29.80 "HgN/A
3:00 am78 °FWarm.5 mph92%29.79 "HgN/A
2:00 am78 °FWarm.6 mph93%29.79 "HgN/A
12:00 am78 °FWarm.5 mph92%29.80 "HgN/A
11:00 pm
Mon, Dec 5
78 °FWarm.5 mph93%29.82 "HgN/A
9:00 pm78 °FWarm.3 mph93%29.83 "HgN/A
8:00 pm79 °FWarm.No wind93%29.81 "HgN/A
6:00 pm80 °FWarm.6 mph84%29.78 "HgN/A
5:00 pm82 °FWarm.6 mph81%29.77 "HgN/A
Weather by CustomWeather, © 2016

See weather overviewHow to use our weather pages